Kill Devil Hills, NC

3:33 AM EDT on April 26, 2017 (GMT -0400)
First Flight

Weather History for KFFA - March, 2013

Change the Weather History Date:

Monday, March 4, 2013

  Actual Average (KMQI) Record (KMQI)
Temperature  
Mean Temperature 36 °F -  
Max Temperature 42 °F 53 °F 78 °F (1976)
Min Temperature 31 °F 40 °F 28 °F (1968)
Degree Days  
Heating Degree Days 28    
Moisture  
Dew Point 21 °F    
Average Humidity 53    
Maximum Humidity 72    
Minimum Humidity 34    
Precipitation  
Precipitation 0.00 in - - ()
Sea Level Pressure  
Sea Level Pressure 29.97 in    
Wind  
Wind Speed 6 mph (WNW)    
Max Wind Speed 15 mph    
Max Gust Speed 24 mph    
Visibility 10 miles    
Events      
Averages and records for this station are not official NWS values.
T = Trace of Precipitation, MM = Missing Value Source: NWS Daily Summary

Daily Weather History Graph

Daily Weather History Graph

Search for Another Location

Airport or City:

Trip Planner

Search our weather history database for the weather conditions in past years. The results will help you decide how hot, cold, wet, or windy it might be!

Date:

Astronomy

Mar. 04, 2013 Rise Set
Actual Time 6:28 AM EST 6:00 PM EST
Civil Twilight 6:02 AM EST 6:26 PM EST
Nautical Twilight 5:33 AM EST 6:55 PM EST
Astronomical Twilight 5:03 AM EST 7:25 PM EST
Moon 12:27 AM EST (3/4) 10:48 AM EST (3/4)
Length of Visible Light 12h 23m
Length of Day
11h 32m
Waning Gibbous, 52% of the Moon is Illuminated
Mar 4
Waning Gibbous
Mar 4
Last Quarter
Mar 11
New
Mar 19
First Quarter
Mar 27
Full

Hourly Weather History & Observations

Time (EST) Temp. Windchill Dew Point Humidity Pressure Visibility Wind Dir Wind Speed Gust Speed Precip Events Conditions
12:15 AM 33.6 °F - 25.5 °F 72% 29.88 in 10.0 mi Calm Calm - N/A   Mostly Cloudy
12:35 AM 34.0 °F - 25.2 °F 70% 29.88 in 10.0 mi Calm Calm - N/A   Scattered Clouds
12:55 AM 33.6 °F - 25.2 °F 71% 29.89 in 10.0 mi Calm Calm - N/A   Scattered Clouds
1:15 AM 33.6 °F 30.6 °F 25.3 °F 72% 29.89 in 10.0 mi North 3.5 mph - N/A   Clear
1:35 AM 34.5 °F 31.6 °F 25.3 °F 69% 29.89 in 10.0 mi North 3.5 mph - N/A   Clear
1:55 AM 34.2 °F 29.0 °F 25.0 °F 69% 29.89 in 10.0 mi NNW 5.8 mph - N/A   Scattered Clouds
2:15 AM 34.3 °F 28.4 °F 23.9 °F 66% 29.88 in 10.0 mi NNW 6.9 mph - N/A   Clear
2:35 AM 34.7 °F 29.6 °F 23.9 °F 65% 29.89 in 10.0 mi North 5.8 mph - N/A   Clear
2:55 AM 34.5 °F 27.9 °F 23.5 °F 64% 29.89 in 10.0 mi NNW 8.1 mph - N/A   Clear
3:15 AM 33.6 °F 27.5 °F 22.8 °F 65% 29.89 in 10.0 mi NNW 6.9 mph - N/A   Clear
3:35 AM 32.9 °F 25.9 °F 22.5 °F 65% 29.89 in 10.0 mi NNW 8.1 mph - N/A   Clear
3:55 AM 32.5 °F 26.2 °F 22.5 °F 66% 29.90 in 10.0 mi NNW 6.9 mph - N/A   Clear
4:15 AM 32.4 °F 26.0 °F 22.3 °F 66% 29.91 in 10.0 mi NNW 6.9 mph - N/A   Clear
4:35 AM 32.4 °F 26.0 °F 21.9 °F 65% 29.92 in 10.0 mi NNW 6.9 mph - N/A   Scattered Clouds
4:55 AM 32.0 °F 27.5 °F 21.4 °F 65% 29.93 in 10.0 mi NNW 4.6 mph - N/A   Mostly Cloudy
5:15 AM 32.2 °F 25.8 °F 21.0 °F 63% 29.94 in 10.0 mi NW 6.9 mph - N/A   Overcast
5:35 AM 32.4 °F 25.3 °F 21.4 °F 64% 29.94 in 10.0 mi NNW 8.1 mph - N/A   Overcast
5:55 AM 32.2 °F 28.9 °F 21.6 °F 65% 29.95 in 10.0 mi NW 3.5 mph - N/A   Overcast
6:15 AM 32.0 °F 25.6 °F 22.5 °F 68% 29.96 in 10.0 mi WNW 6.9 mph - N/A   Overcast
6:35 AM 32.0 °F 25.6 °F 22.1 °F 67% 29.96 in 10.0 mi NW 6.9 mph - N/A   Overcast
6:55 AM 31.8 °F 24.6 °F 21.4 °F 65% 29.97 in 10.0 mi NW 8.1 mph - N/A   Overcast
7:15 AM 31.8 °F 23.9 °F 20.8 °F 64% 29.98 in 10.0 mi NW 9.2 mph - N/A   Overcast
7:35 AM 32.0 °F 24.8 °F 20.5 °F 63% 29.99 in 10.0 mi NW 8.1 mph - N/A   Overcast
7:55 AM 32.2 °F 26.7 °F 20.3 °F 62% 29.99 in 10.0 mi NNW 5.8 mph - N/A   Overcast
8:15 AM 32.7 °F 24.5 °F 19.8 °F 59% 30.00 in 10.0 mi NNW 10.4 mph 17.3 mph N/A   Overcast
8:35 AM 33.1 °F 23.9 °F 18.5 °F 55% 30.00 in 10.0 mi NW 12.7 mph 18.4 mph N/A   Overcast
8:55 AM 33.6 °F 26.2 °F 18.3 °F 54% 30.01 in 10.0 mi NW 9.2 mph - N/A   Scattered Clouds
9:15 AM 34.3 °F 25.9 °F 18.0 °F 51% 30.01 in 10.0 mi NNW 11.5 mph 17.3 mph N/A   Clear
9:35 AM 35.1 °F 27.4 °F 17.8 °F 49% 30.01 in 10.0 mi NW 10.4 mph 18.4 mph N/A   Clear
9:55 AM 35.2 °F 28.8 °F 17.1 °F 48% 30.01 in 10.0 mi NW 8.1 mph 17.3 mph N/A   Clear
10:15 AM 36.0 °F 29.0 °F 16.7 °F 46% 30.01 in 10.0 mi NNW 9.2 mph 16.1 mph N/A   Clear
10:35 AM 36.9 °F 32.2 °F 17.4 °F 45% 30.01 in 10.0 mi WNW 5.8 mph - N/A   Clear
10:55 AM 37.2 °F 30.0 °F 17.8 °F 45% 30.01 in 10.0 mi NW 10.4 mph 16.1 mph N/A   Clear
11:15 AM 37.8 °F 31.3 °F 18.1 °F 45% 30.00 in 10.0 mi West 9.2 mph 18.4 mph N/A   Clear
11:35 AM 37.4 °F 30.3 °F 19.2 °F 48% 30.00 in 10.0 mi West 10.4 mph 19.6 mph N/A   Clear
11:55 AM 37.2 °F 28.7 °F 18.1 °F 46% 30.00 in 10.0 mi West 13.8 mph 20.7 mph N/A   Clear
12:15 PM 37.4 °F 30.8 °F 18.1 °F 46% 30.00 in 10.0 mi WNW 9.2 mph 19.6 mph N/A   Clear
12:35 PM 38.1 °F 30.7 °F 18.9 °F 46% 29.99 in 10.0 mi West 11.5 mph 18.4 mph N/A   Clear
12:55 PM 39.4 °F 32.3 °F 18.5 °F 43% 29.98 in 10.0 mi West 11.5 mph 19.6 mph N/A   Clear
1:15 PM 39.6 °F 32.1 °F 17.2 °F 41% 29.98 in 10.0 mi WNW 12.7 mph 24.2 mph N/A   Clear
1:55 PM 40.3 °F 33.4 °F 16.0 °F 37% 29.96 in 10.0 mi WNW 11.5 mph 18.4 mph N/A   Clear
2:15 PM 40.8 °F 33.7 °F 15.8 °F 36% 29.96 in 10.0 mi West 12.7 mph 20.7 mph N/A   Clear
2:35 PM 40.8 °F 32.9 °F 15.1 °F 35% 29.96 in 10.0 mi West 15.0 mph 20.7 mph N/A   Clear
2:55 PM 41.2 °F 33.7 °F 15.4 °F 35% 29.96 in 10.0 mi West 13.8 mph 18.4 mph N/A   Clear
3:15 PM 41.5 °F 35.0 °F 16.2 °F 36% 29.96 in 10.0 mi West 11.5 mph 17.3 mph N/A   Clear
3:35 PM 42.1 °F 36.6 °F 15.6 °F 34% 29.95 in 10.0 mi WNW 9.2 mph 17.3 mph N/A   Clear
4:15 PM 42.4 °F 36.5 °F 16.5 °F 35% 29.96 in 10.0 mi West 10.4 mph - N/A   Clear
4:35 PM 42.1 °F 36.1 °F 16.9 °F 36% 29.96 in 10.0 mi West 10.4 mph 17.3 mph N/A   Clear
4:55 PM 42.3 °F 36.3 °F 16.9 °F 36% 29.96 in 10.0 mi West 10.4 mph 17.3 mph N/A   Clear
5:15 PM 41.9 °F 35.9 °F 16.3 °F 36% 29.96 in 10.0 mi West 10.4 mph 17.3 mph N/A   Clear
5:35 PM 41.7 °F 37.3 °F 17.8 °F 38% 29.97 in 10.0 mi West 6.9 mph - N/A   Clear
5:55 PM 41.2 °F 36.0 °F 20.1 °F 43% 29.97 in 10.0 mi West 8.1 mph - N/A   Clear
6:15 PM 40.8 °F 36.2 °F 21.6 °F 46% 29.98 in 10.0 mi West 6.9 mph - N/A   Clear
6:35 PM 41.0 °F 35.8 °F 21.0 °F 45% 29.99 in 10.0 mi West 8.1 mph - N/A   Clear
6:55 PM 41.4 °F 36.8 °F 20.7 °F 44% 29.99 in 10.0 mi West 6.9 mph - N/A   Clear
7:15 PM 41.4 °F 36.2 °F 21.7 °F 46% 30.00 in 10.0 mi West 8.1 mph - N/A   Clear
7:35 PM 41.4 °F 36.8 °F 23.5 °F 49% 30.01 in 10.0 mi West 6.9 mph - N/A   Clear
7:55 PM 41.2 °F 37.3 °F 23.4 °F 49% 30.01 in 10.0 mi West 5.8 mph - N/A   Clear
8:15 PM 41.4 °F 36.2 °F 24.1 °F 50% 30.02 in 10.0 mi West 8.1 mph - N/A   Clear
8:35 PM 41.4 °F 37.6 °F 24.8 °F 52% 30.02 in 10.0 mi West 5.8 mph - N/A   Clear
8:55 PM 41.0 °F 37.1 °F 25.5 °F 54% 30.02 in 10.0 mi West 5.8 mph - N/A   Clear
9:15 PM 40.5 °F 35.8 °F 26.8 °F 58% 30.03 in 10.0 mi West 6.9 mph - N/A   Clear
9:35 PM 41.2 °F 36.0 °F 25.3 °F 53% 30.03 in 10.0 mi West 8.1 mph - N/A   Clear
9:55 PM 41.7 °F 36.7 °F 24.3 °F 50% 30.04 in 10.0 mi West 8.1 mph - N/A   Clear
10:15 PM 41.7 °F 38.0 °F 26.1 °F 54% 30.04 in 10.0 mi West 5.8 mph - N/A   Clear
10:35 PM 41.2 °F 38.2 °F 28.0 °F 60% 30.04 in 10.0 mi West 4.6 mph - N/A   Clear
10:55 PM 40.6 °F 36.7 °F 28.8 °F 63% 30.04 in 10.0 mi West 5.8 mph - N/A   Clear
11:15 PM 39.9 °F 36.7 °F 28.6 °F 64% 30.04 in 10.0 mi WSW 4.6 mph - N/A   Clear